IRIDIUM 7 [-]

Last updated on Wed Jun 28 2023 00:03:01 GMT+0000 (Coordinated Universal Time)

1 24793U 97020B 23177.56142153 .00000529 00000+0 17954-3 0 9994 2 24793 86.3964 119.1443 0002244 81.7493 278.3957 14.34826695368602
UTC large
Height (km)
Speed (km/s)
/
Latitude / Longitude
Inclination (degrees)
Orbital Period (minutes)
Azimuth
Elevation
Range (km)
Doppler Factor

Next 0 passes for location: London (51.5072 / 0.1276)

Sorry there are no passes over London.